year,month,rank_ROE_6,nstocks,ret_vw
1967,1,1,82,11.9898
1967,1,2,62,7.7541
1967,1,3,64,7.7625
1967,1,4,68,4.7615
1967,1,5,61,4.4472
1967,1,6,65,7.2754
1967,1,7,65,9.0744
1967,1,8,78,9.3543
1967,1,9,66,10.2291
1967,1,10,81,8.5932
1967,2,1,131,0.5315
1967,2,2,112,-1.1871
1967,2,3,110,-0.8212
1967,2,4,113,-0.5603
1967,2,5,115,-0.0126
1967,2,6,111,-0.0706
1967,2,7,111,0.1891
1967,2,8,126,3.2809
1967,2,9,108,1.6369
1967,2,10,118,4.7834
1967,3,1,139,4.6767
1967,3,2,120,4.1474
1967,3,3,119,3.5920
1967,3,4,118,3.3576
1967,3,5,124,2.5239
1967,3,6,121,3.6722
1967,3,7,122,3.9325
1967,3,8,139,4.0491
1967,3,9,122,6.9181
1967,3,10,127,6.5757
1967,4,1,145,9.3449
1967,4,2,126,3.1467
1967,4,3,127,3.5808
1967,4,4,123,2.1186
1967,4,5,129,3.8704
1967,4,6,130,3.0034
1967,4,7,128,5.3476
1967,4,8,146,7.7535
1967,4,9,130,5.6053
1967,4,10,134,4.3081
1967,5,1,238,-5.6651
1967,5,2,209,-4.3486
1967,5,3,203,-4.2711
1967,5,4,202,-3.6534
1967,5,5,199,-3.2472
1967,5,6,204,-3.5606
1967,5,7,204,-4.5941
1967,5,8,226,-3.6460
1967,5,9,215,-5.7210
1967,5,10,226,-4.7744
1967,6,1,252,2.4548
1967,6,2,218,1.8898
1967,6,3,212,2.0238
1967,6,4,211,1.6837
1967,6,5,205,0.9454
1967,6,6,215,1.6224
1967,6,7,218,1.2745
1967,6,8,254,3.6299
1967,6,9,236,1.4278
1967,6,10,236,3.5372
1967,7,1,237,9.1765
1967,7,2,196,6.2829
1967,7,3,188,5.2480
1967,7,4,187,6.4685
1967,7,5,180,5.8350
1967,7,6,186,5.8203
1967,7,7,188,4.3530
1967,7,8,216,6.1937
1967,7,9,216,6.0273
1967,7,10,215,2.5814
1967,8,1,288,0.3318
1967,8,2,258,-0.8244
1967,8,3,261,-0.5918
1967,8,4,254,-0.7761
1967,8,5,246,-1.2358
1967,8,6,252,-0.1665
1967,8,7,254,-0.9175
1967,8,8,271,-0.7290
1967,8,9,269,-0.9605
1967,8,10,275,-0.7047
1967,9,1,302,2.4023
1967,9,2,278,1.4256
1967,9,3,276,2.4402
1967,9,4,272,3.3021
1967,9,5,259,2.6070
1967,9,6,268,2.7348
1967,9,7,266,5.5804
1967,9,8,291,4.3448
1967,9,9,291,3.9305
1967,9,10,295,3.4752
1967,10,1,266,-2.8212
1967,10,2,239,-6.2023
1967,10,3,246,-6.0977
1967,10,4,235,-4.6979
1967,10,5,229,-2.4366
1967,10,6,230,-4.7563
1967,10,7,235,0.2750
1967,10,8,260,-2.3776
1967,10,9,257,-0.5229
1967,10,10,277,-0.9096
1967,11,1,311,-0.3751
1967,11,2,287,-0.2014
1967,11,3,289,0.5954
1967,11,4,285,1.8128
1967,11,5,264,0.4361
1967,11,6,279,-0.3285
1967,11,7,273,0.5732
1967,11,8,296,1.0830
1967,11,9,298,0.6064
1967,11,10,316,1.9843
1967,12,1,313,5.1265
1967,12,2,286,4.0284
1967,12,3,291,4.1173
1967,12,4,293,3.5219
1967,12,5,267,2.9103
1967,12,6,285,3.0735
1967,12,7,273,3.0259
1967,12,8,299,2.0955
1967,12,9,303,2.8076
1967,12,10,321,4.0817
1968,1,1,264,-2.7322
1968,1,2,229,-3.2039
1968,1,3,215,-2.6195
1968,1,4,227,-2.5485
1968,1,5,204,-2.9259
1968,1,6,214,-4.0810
1968,1,7,207,-3.2985
1968,1,8,231,-4.2960
1968,1,9,234,-7.0103
1968,1,10,265,-8.2571
1968,2,1,310,-4.2264
1968,2,2,278,-2.7996
1968,2,3,268,-2.9237
1968,2,4,270,-2.8313
1968,2,5,258,-1.7830
1968,2,6,250,-2.0368
1968,2,7,242,-3.0873
1968,2,8,267,-2.7342
1968,2,9,256,-3.6725
1968,2,10,281,-4.6437
1968,3,1,310,-0.4458
1968,3,2,285,-0.0500
1968,3,3,279,-0.9172
1968,3,4,280,-0.4694
1968,3,5,264,-0.2194
1968,3,6,261,-1.0772
1968,3,7,251,0.1396
1968,3,8,284,2.0227
1968,3,9,267,1.7560
1968,3,10,280,3.9492
1968,4,1,261,10.9854
1968,4,2,230,9.6281
1968,4,3,221,8.4870
1968,4,4,229,8.2188
1968,4,5,224,8.0923
1968,4,6,208,6.1913
1968,4,7,210,9.2300
1968,4,8,238,10.5097
1968,4,9,222,10.7663
1968,4,10,248,12.7639
1968,5,1,317,4.5622
1968,5,2,284,2.3351
1968,5,3,271,1.9110
1968,5,4,288,0.4618
1968,5,5,274,0.1022
1968,5,6,277,-0.1195
1968,5,7,285,1.9183
1968,5,8,303,3.5895
1968,5,9,283,3.1810
1968,5,10,325,4.1465
1968,6,1,323,-0.4094
1968,6,2,289,0.1280
1968,6,3,278,2.8958
1968,6,4,290,1.9092
1968,6,5,278,2.9332
1968,6,6,282,1.9380
1968,6,7,305,-0.2184
1968,6,8,317,-0.0735
1968,6,9,305,-0.6079
1968,6,10,336,0.5525
1968,7,1,288,-4.2461
1968,7,2,233,-1.7610
1968,7,3,227,-1.3166
1968,7,4,225,0.7600
1968,7,5,229,0.7098
1968,7,6,235,0.1437
1968,7,7,260,-1.9493
1968,7,8,271,-4.1731
1968,7,9,261,-3.7967
1968,7,10,301,-5.3803
1968,8,1,326,1.4388
1968,8,2,306,2.9296
1968,8,3,283,2.7873
1968,8,4,285,1.5159
1968,8,5,294,1.8579
1968,8,6,301,1.3363
1968,8,7,321,1.2757
1968,8,8,323,0.4080
1968,8,9,311,1.7771
1968,8,10,340,1.7575
1968,9,1,339,9.7362
1968,9,2,320,7.1606
1968,9,3,296,6.1931
1968,9,4,302,5.5163
1968,9,5,302,3.1117
1968,9,6,314,3.1324
1968,9,7,331,4.6188
1968,9,8,335,2.5972
1968,9,9,327,4.4246
1968,9,10,355,3.8339
1968,10,1,282,0.8377
1968,10,2,267,2.0409
1968,10,3,243,1.7094
1968,10,4,240,0.7151
1968,10,5,243,2.9009
1968,10,6,261,1.2434
1968,10,7,271,0.5902
1968,10,8,268,-1.5281
1968,10,9,291,0.4595
1968,10,10,309,-0.3966
1968,11,1,339,6.2099
1968,11,2,317,6.5850
1968,11,3,307,6.7746
1968,11,4,288,6.0311
1968,11,5,305,5.6837
1968,11,6,295,6.2513
1968,11,7,318,5.3911
1968,11,8,316,4.6151
1968,11,9,325,4.5088
1968,11,10,339,8.3404
1968,12,1,348,-1.5995
1968,12,2,324,-1.3230
1968,12,3,315,-2.2854
1968,12,4,297,-3.3208
1968,12,5,313,-3.7401
1968,12,6,300,-3.2123
1968,12,7,328,-3.2246
1968,12,8,324,-4.4902
1968,12,9,339,-3.6351
1968,12,10,346,-3.8354
1969,1,1,292,-0.0837
1969,1,2,271,-2.4430
1969,1,3,252,0.1142
1969,1,4,229,0.6261
1969,1,5,254,-0.0294
1969,1,6,239,0.0046
1969,1,7,250,-0.9267
1969,1,8,258,-1.9721
1969,1,9,265,-2.4787
1969,1,10,292,-1.6196
1969,2,1,336,-8.8741
1969,2,2,318,-6.6239
1969,2,3,303,-6.5044
1969,2,4,280,-5.3157
1969,2,5,304,-4.4099
1969,2,6,278,-4.8602
1969,2,7,284,-5.2250
1969,2,8,306,-4.1466
1969,2,9,287,-3.3891
1969,2,10,295,-6.8631
1969,3,1,341,1.5068
1969,3,2,326,1.5371
1969,3,3,313,5.1128
1969,3,4,291,5.0632
1969,3,5,308,3.8205
1969,3,6,284,2.7823
1969,3,7,289,2.8750
1969,3,8,316,3.3922
1969,3,9,292,3.9030
1969,3,10,304,2.3957
1969,4,1,297,1.8453
1969,4,2,256,1.3439
1969,4,3,253,0.5001
1969,4,4,230,1.4259
1969,4,5,243,1.0035
1969,4,6,229,2.5571
1969,4,7,247,0.6835
1969,4,8,269,2.8621
1969,4,9,252,2.7056
1969,4,10,260,1.7682
1969,5,1,370,0.0413
1969,5,2,333,1.2121
1969,5,3,323,1.5466
1969,5,4,295,1.3133
1969,5,5,306,0.1741
1969,5,6,290,-0.6964
1969,5,7,317,-0.5537
1969,5,8,318,-0.2074
1969,5,9,311,-0.0999
1969,5,10,329,1.1514
1969,6,1,381,-10.8974
1969,6,2,349,-9.4723
1969,6,3,332,-7.8570
1969,6,4,307,-8.3528
1969,6,5,316,-6.0291
1969,6,6,298,-6.5503
1969,6,7,335,-8.1216
1969,6,8,327,-6.7229
1969,6,9,326,-2.0878
1969,6,10,332,-5.4859
1969,7,1,336,-9.1880
1969,7,2,302,-8.5507
1969,7,3,271,-6.0584
1969,7,4,253,-7.5606
1969,7,5,252,-7.2177
1969,7,6,254,-6.6029
1969,7,7,274,-7.1103
1969,7,8,291,-4.7736
1969,7,9,270,-4.6225
1969,7,10,296,-6.0358
1969,8,1,382,4.2819
1969,8,2,351,4.7069
1969,8,3,359,2.7960
1969,8,4,312,5.0978
1969,8,5,319,3.8208
1969,8,6,324,4.5694
1969,8,7,344,4.7454
1969,8,8,358,5.3452
1969,8,9,331,5.6970
1969,8,10,336,7.4554
1969,9,1,387,-2.7918
1969,9,2,372,-4.7203
1969,9,3,367,-3.3668
1969,9,4,333,-4.4405
1969,9,5,348,-3.9060
1969,9,6,343,-4.0821
1969,9,7,365,-1.9751
1969,9,8,371,-0.0522
1969,9,9,344,-0.5025
1969,9,10,351,-2.0196
1969,10,1,353,8.1367
1969,10,2,314,4.9191
1969,10,3,301,6.6824
1969,10,4,275,4.0071
1969,10,5,279,3.8084
1969,10,6,283,3.8617
1969,10,7,310,7.1115
1969,10,8,302,5.7211
1969,10,9,298,4.4243
1969,10,10,312,8.1437
1969,11,1,409,-6.5391
1969,11,2,370,-4.5986
1969,11,3,364,-4.7265
1969,11,4,338,-4.1034
1969,11,5,343,-4.0132
1969,11,6,336,-3.8829
1969,11,7,370,-3.3193
1969,11,8,352,-2.2560
1969,11,9,335,-2.5387
1969,11,10,337,-2.3666
1969,12,1,418,-7.4766
1969,12,2,365,-3.8316
1969,12,3,366,-3.5166
1969,12,4,340,-2.5131
1969,12,5,344,-2.2125
1969,12,6,338,-1.7972
1969,12,7,372,-0.4954
1969,12,8,361,0.6560
1969,12,9,340,-0.3734
1969,12,10,352,-1.7544
1970,1,1,352,-7.4151
1970,1,2,288,-6.6312
1970,1,3,290,-7.5210
1970,1,4,280,-8.5267
1970,1,5,279,-7.4878
1970,1,6,264,-8.9997
1970,1,7,297,-7.3210
1970,1,8,283,-6.7043
1970,1,9,269,-8.6385
1970,1,10,295,-8.9789
1970,2,1,400,6.1860
1970,2,2,354,7.2366
1970,2,3,359,7.7997
1970,2,4,335,7.3790
1970,2,5,336,5.3374
1970,2,6,312,6.0335
1970,2,7,340,6.0005
1970,2,8,327,5.2963
1970,2,9,303,4.3819
1970,2,10,310,3.2673
1970,3,1,400,-1.4098
1970,3,2,351,0.7132
1970,3,3,370,-0.0487
1970,3,4,348,-0.0375
1970,3,5,346,0.7242
1970,3,6,315,0.7657
1970,3,7,343,0.1518
1970,3,8,327,-0.6452
1970,3,9,306,-0.9124
1970,3,10,317,-2.5114
1970,4,1,362,-15.0516
1970,4,2,282,-10.0895
1970,4,3,303,-10.3392
1970,4,4,283,-8.1913
1970,4,5,275,-8.6537
1970,4,6,251,-9.7394
1970,4,7,277,-9.1286
1970,4,8,278,-10.3972
1970,4,9,258,-11.2382
1970,4,10,282,-11.5375
1970,5,1,442,-9.6274
1970,5,2,366,-6.4415
1970,5,3,380,-4.7733
1970,5,4,355,-3.4680
1970,5,5,337,-3.6061
1970,5,6,319,-5.2828
1970,5,7,341,-6.7369
1970,5,8,347,-7.7551
1970,5,9,331,-7.0490
1970,5,10,371,-7.7680
1970,6,1,449,-8.3377
1970,6,2,370,-6.3527
1970,6,3,389,-5.0443
1970,6,4,361,-3.9847
1970,6,5,346,-4.2014
1970,6,6,325,-5.3948
1970,6,7,343,-2.5271
1970,6,8,353,-4.7192
1970,6,9,348,-6.1906
1970,6,10,372,-4.0235
1970,7,1,389,10.9595
1970,7,2,318,8.5883
1970,7,3,328,6.8296
1970,7,4,310,9.2123
1970,7,5,281,9.0782
1970,7,6,265,8.9108
1970,7,7,281,8.3975
1970,7,8,301,6.9891
1970,7,9,311,5.1784
1970,7,10,320,3.5508
1970,8,1,452,6.6246
1970,8,2,407,5.9005
1970,8,3,409,5.4342
1970,8,4,394,5.4010
1970,8,5,379,6.4573
1970,8,6,344,5.4442
1970,8,7,366,5.8543
1970,8,8,372,3.0555
1970,8,9,359,4.9336
1970,8,10,364,4.3474
1970,9,1,466,10.2533
1970,9,2,430,6.0051
1970,9,3,422,5.3435
1970,9,4,409,2.6419
1970,9,5,399,2.6721
1970,9,6,374,2.0799
1970,9,7,379,2.6725
1970,9,8,398,5.4555
1970,9,9,378,5.9766
1970,9,10,388,8.4659
1970,10,1,417,-4.5320
1970,10,2,378,-5.0408
1970,10,3,347,-3.7581
1970,10,4,349,-1.7681
1970,10,5,339,-1.5400
1970,10,6,316,-0.9616
1970,10,7,318,0.1869
1970,10,8,340,-0.5998
1970,10,9,316,-0.1357
1970,10,10,338,-1.7748
1970,11,1,472,3.6382
1970,11,2,437,4.4630
1970,11,3,390,3.7304
1970,11,4,414,4.8028
1970,11,5,403,5.4044
1970,11,6,392,4.6477
1970,11,7,393,6.0176
1970,11,8,391,5.2802
1970,11,9,371,5.3874
1970,11,10,386,4.5975
1970,12,1,480,6.2235
1970,12,2,445,8.7613
1970,12,3,400,6.6653
1970,12,4,410,5.8929
1970,12,5,401,6.7108
1970,12,6,388,7.1519
1970,12,7,382,5.7063
1970,12,8,386,6.4229
1970,12,9,374,4.5612
1970,12,10,397,5.4066
1971,1,1,405,13.4263
1971,1,2,362,8.8551
1971,1,3,296,7.7942
1971,1,4,326,6.7307
1971,1,5,319,2.6745
1971,1,6,309,3.5158
1971,1,7,295,3.0558
1971,1,8,307,4.9115
1971,1,9,288,3.3263
1971,1,10,312,4.8644
1971,2,1,462,1.7967
1971,2,2,437,2.1900
1971,2,3,367,1.6758
1971,2,4,385,1.3734
1971,2,5,370,2.6922
1971,2,6,367,2.0142
1971,2,7,326,1.5659
1971,2,8,339,2.0968
1971,2,9,324,2.8760
1971,2,10,343,2.0949
1971,3,1,463,4.5471
1971,3,2,435,2.8494
1971,3,3,370,3.0316
1971,3,4,392,3.6639
1971,3,5,382,4.3229
1971,3,6,373,3.1656
1971,3,7,340,3.9069
1971,3,8,336,4.1707
1971,3,9,333,5.3033
1971,3,10,351,6.5615
1971,4,1,410,7.4502
1971,4,2,354,6.7231
1971,4,3,301,4.5853
1971,4,4,322,4.3028
1971,4,5,295,2.6724
1971,4,6,295,4.2001
1971,4,7,276,2.4533
1971,4,8,278,3.2282
1971,4,9,277,3.4055
1971,4,10,307,3.5498
1971,5,1,465,-5.2841
1971,5,2,430,-4.6556
1971,5,3,385,-3.0976
1971,5,4,394,-3.8790
1971,5,5,382,-4.0555
1971,5,6,363,-3.7946
1971,5,7,344,-3.3020
1971,5,8,337,-1.9155
1971,5,9,344,-4.4280
1971,5,10,384,-1.8613
1971,6,1,470,-4.5630
1971,6,2,430,-2.7675
1971,6,3,398,-1.6681
1971,6,4,408,0.1019
1971,6,5,394,0.3632
1971,6,6,365,1.2441
1971,6,7,355,0.5324
1971,6,8,355,0.9832
1971,6,9,357,0.4934
1971,6,10,402,2.4552
1971,7,1,410,-5.1798
1971,7,2,367,-6.0011
1971,7,3,325,-5.3571
1971,7,4,322,-4.3853
1971,7,5,319,-4.5934
1971,7,6,302,-3.2195
1971,7,7,284,-2.0229
1971,7,8,308,-4.1696
1971,7,9,308,-5.0675
1971,7,10,355,-3.7776
1971,8,1,470,8.9617
1971,8,2,429,7.7274
1971,8,3,404,7.2378
1971,8,4,422,5.4815
1971,8,5,410,4.5212
1971,8,6,396,2.5841
1971,8,7,362,1.7470
1971,8,8,379,1.4372
1971,8,9,366,4.4623
1971,8,10,401,5.3272
1971,9,1,475,-0.9506
1971,9,2,436,-2.6635
1971,9,3,416,-2.0142
1971,9,4,430,-1.5663
1971,9,5,419,-2.1487
1971,9,6,412,-0.4335
1971,9,7,388,-0.4615
1971,9,8,390,-0.2652
1971,9,9,395,-0.3841
1971,9,10,416,0.9764
1971,10,1,434,-5.4380
1971,10,2,360,-6.6767
1971,10,3,353,-5.2248
1971,10,4,358,-6.7055
1971,10,5,353,-5.2828
1971,10,6,330,-4.1317
1971,10,7,322,-4.0957
1971,10,8,325,-4.0544
1971,10,9,344,-2.6877
1971,10,10,360,-3.3873
1971,11,1,505,-1.4037
1971,11,2,437,-3.0389
1971,11,3,435,-1.9979
1971,11,4,433,-1.4930
1971,11,5,435,-1.0238
1971,11,6,417,-1.1563
1971,11,7,405,-0.2119
1971,11,8,390,-0.1636
1971,11,9,407,1.1670
1971,11,10,408,1.2441
1971,12,1,514,10.4712
1971,12,2,442,10.6075
1971,12,3,435,11.0855
1971,12,4,438,9.8520
1971,12,5,443,10.4090
1971,12,6,425,9.5302
1971,12,7,410,8.9883
1971,12,8,405,8.9423
1971,12,9,419,9.5801
1971,12,10,416,7.8762
1972,1,1,455,7.6480
1972,1,2,397,6.8391
1972,1,3,387,5.0522
1972,1,4,375,3.4700
1972,1,5,375,1.7619
1972,1,6,374,2.2114
1972,1,7,370,1.3395
1972,1,8,365,1.6893
1972,1,9,389,4.2033
1972,1,10,362,3.0755
1972,2,1,449,5.4469
1972,2,2,394,3.7707
1972,2,3,396,1.5591
1972,2,4,376,2.8833
1972,2,5,373,3.5836
1972,2,6,363,3.6664
1972,2,7,362,3.8220
1972,2,8,343,4.1859
1972,2,9,371,2.6555
1972,2,10,347,4.8253
1972,3,1,450,-2.4487
1972,3,2,396,-1.2924
1972,3,3,410,0.0237
1972,3,4,382,1.0904
1972,3,5,390,0.2605
1972,3,6,378,-0.4512
1972,3,7,399,-0.1801
1972,3,8,355,0.6059
1972,3,9,376,1.6111
1972,3,10,355,2.5214
1972,4,1,381,2.0806
1972,4,2,324,1.2482
1972,4,3,317,0.7690
1972,4,4,285,-0.3965
1972,4,5,293,0.9346
1972,4,6,279,2.9263
1972,4,7,311,0.5063
1972,4,8,283,0.3951
1972,4,9,308,1.5790
1972,4,10,302,0.7197
1972,5,1,403,-2.3086
1972,5,2,350,-0.8485
1972,5,3,360,-0.8461
1972,5,4,324,-0.7233
1972,5,5,356,0.9511
1972,5,6,338,1.3032
1972,5,7,375,2.0218
1972,5,8,340,-0.3144
1972,5,9,338,3.0240
1972,5,10,317,3.1700
1972,6,1,288,-7.2475
1972,6,2,252,-3.1962
1972,6,3,269,-3.5125
1972,6,4,237,-3.2272
1972,6,5,265,-3.3471
1972,6,6,253,-2.7249
1972,6,7,261,-2.5922
1972,6,8,248,-3.4517
1972,6,9,244,-3.0653
1972,6,10,210,-0.6119
1972,7,1,306,-6.8477
1972,7,2,252,-3.1219
1972,7,3,267,-1.7498
1972,7,4,233,-1.4239
1972,7,5,261,-0.4563
1972,7,6,254,-3.0349
1972,7,7,256,-0.2599
1972,7,8,259,-0.8821
1972,7,9,255,0.6559
1972,7,10,215,0.3587
1972,8,1,337,2.5023
1972,8,2,292,5.8759
1972,8,3,335,4.7820
1972,8,4,314,4.9615
1972,8,5,350,3.4745
1972,8,6,331,4.6927
1972,8,7,332,4.5991
1972,8,8,326,2.8440
1972,8,9,289,2.5070
1972,8,10,246,1.2254
1972,9,1,344,-5.3412
1972,9,2,326,-3.6332
1972,9,3,355,-3.9373
1972,9,4,337,-2.1610
1972,9,5,376,-1.0885
1972,9,6,352,-1.3005
1972,9,7,362,-0.4525
1972,9,8,349,-1.4619
1972,9,9,307,-0.6371
1972,9,10,260,-0.0950
1972,10,1,337,0.0834
1972,10,2,313,1.0355
1972,10,3,329,-0.2143
1972,10,4,311,1.6207
1972,10,5,336,0.9588
1972,10,6,326,1.4096
1972,10,7,321,0.8848
1972,10,8,326,0.0984
1972,10,9,289,-1.3452
1972,10,10,250,1.1801
1972,11,1,354,5.3275
1972,11,2,340,7.3891
1972,11,3,353,9.0482
1972,11,4,361,7.5290
1972,11,5,387,6.5056
1972,11,6,377,6.7899
1972,11,7,372,4.6458
1972,11,8,354,5.0030
1972,11,9,327,3.2382
1972,11,10,277,2.0994
1972,12,1,370,-4.0322
1972,12,2,363,-1.5031
1972,12,3,372,-0.0133
1972,12,4,375,0.2427
1972,12,5,400,-0.0350
1972,12,6,386,0.0557
1972,12,7,391,0.9521
1972,12,8,372,1.6663
1972,12,9,336,2.8092
1972,12,10,280,2.8697
1973,1,1,357,-6.7218
1973,1,2,328,-4.9691
1973,1,3,308,-3.5370
1973,1,4,316,-1.9738
1973,1,5,328,-0.9526
1973,1,6,325,0.1922
1973,1,7,310,-3.7691
1973,1,8,312,-4.5462
1973,1,9,291,-0.3576
1973,1,10,261,-3.0196
1973,2,1,341,-6.5174
1973,2,2,330,-3.9284
1973,2,3,325,-4.9323
1973,2,4,324,-5.8976
1973,2,5,314,-5.9895
1973,2,6,332,-6.2278
1973,2,7,330,-3.7001
1973,2,8,340,-4.5461
1973,2,9,311,-2.8303
1973,2,10,278,-2.3564
1973,3,1,377,-1.8577
1973,3,2,382,0.1144
1973,3,3,375,1.3335
1973,3,4,375,-1.5879
1973,3,5,371,-0.5629
1973,3,6,396,1.4680
1973,3,7,397,-3.8285
1973,3,8,386,-1.8910
1973,3,9,346,-0.6545
1973,3,10,324,-0.0827
1973,4,1,383,-9.0422
1973,4,2,379,-2.8036
1973,4,3,339,-3.2471
1973,4,4,354,-5.6168
1973,4,5,341,-6.7094
1973,4,6,350,-3.0332
1973,4,7,347,-3.8957
1973,4,8,371,-4.7826
1973,4,9,330,-6.1393
1973,4,10,331,-6.0801
1973,5,1,426,-8.5878
1973,5,2,420,-4.5567
1973,5,3,400,-2.3430
1973,5,4,423,-2.5022
1973,5,5,435,-3.4681
1973,5,6,409,-4.2332
1973,5,7,399,-1.9070
1973,5,8,415,-2.3924
1973,5,9,389,-0.9765
1973,5,10,372,-0.4922
1973,6,1,458,-3.9074
1973,6,2,446,-2.0558
1973,6,3,445,-1.3119
1973,6,4,457,-2.5000
1973,6,5,482,-2.0693
1973,6,6,459,-1.3381
1973,6,7,421,-3.8877
1973,6,8,453,-0.5637
1973,6,9,436,-0.1197
1973,6,10,414,-0.6163
1973,7,1,457,11.4393
1973,7,2,429,6.6822
1973,7,3,418,7.0229
1973,7,4,418,9.4189
1973,7,5,464,7.8182
1973,7,6,435,4.6303
1973,7,7,397,8.1923
1973,7,8,429,5.3788
1973,7,9,424,4.1074
1973,7,10,404,5.9627
1973,8,1,475,-3.8610
1973,8,2,451,-1.9030
1973,8,3,470,-2.4555
1973,8,4,495,-3.4360
1973,8,5,513,-2.5514
1973,8,6,479,-3.3417
1973,8,7,447,-3.2682
1973,8,8,466,-3.6978
1973,8,9,443,-2.9840
1973,8,10,432,-3.9717
1973,9,1,487,9.5019
1973,9,2,474,10.1409
1973,9,3,506,9.1319
1973,9,4,507,8.8617
1973,9,5,532,7.9457
1973,9,6,494,7.8200
1973,9,7,465,8.1022
1973,9,8,466,3.1627
1973,9,9,447,0.6373
1973,9,10,441,3.3047
1973,10,1,440,1.8899
1973,10,2,412,1.5256
1973,10,3,456,2.7423
1973,10,4,444,-0.2175
1973,10,5,458,1.9982
1973,10,6,422,-0.7052
1973,10,7,405,-0.6508
1973,10,8,401,2.5615
1973,10,9,400,1.2157
1973,10,10,419,-1.9807
1973,11,1,455,-16.9186
1973,11,2,434,-13.2771
1973,11,3,493,-12.4310
1973,11,4,500,-10.0959
1973,11,5,489,-11.9789
1973,11,6,484,-13.9283
1973,11,7,455,-13.7166
1973,11,8,433,-10.8335
1973,11,9,408,-11.3308
1973,11,10,419,-13.1601
1973,12,1,473,-2.3545
1973,12,2,454,1.3414
1973,12,3,512,2.9556
1973,12,4,511,2.8249
1973,12,5,505,3.9303
1973,12,6,478,5.6139
1973,12,7,453,1.2060
1973,12,8,444,0.4827
1973,12,9,412,-0.4731
1973,12,10,420,-1.3403
1974,1,1,445,12.3489
1974,1,2,404,3.9351
1974,1,3,436,-0.2818
1974,1,4,419,1.4259
1974,1,5,405,-0.3820
1974,1,6,389,0.4904
1974,1,7,361,0.9641
1974,1,8,385,-0.6852
1974,1,9,338,-1.6056
1974,1,10,394,-1.3697
1974,2,1,444,2.5351
1974,2,2,394,2.0893
1974,2,3,454,2.1363
1974,2,4,419,2.8127
1974,2,5,444,2.2754
1974,2,6,425,0.0928
1974,2,7,404,0.6841
1974,2,8,405,-1.2765
1974,2,9,361,-1.3588
1974,2,10,391,-1.3665
1974,3,1,483,-3.4755
1974,3,2,446,-3.9291
1974,3,3,496,-3.8732
1974,3,4,470,-2.8550
1974,3,5,500,-3.1085
1974,3,6,484,-2.3425
1974,3,7,467,-1.5740
1974,3,8,443,-1.6578
1974,3,9,417,-0.7216
1974,3,10,444,-0.7602
1974,4,1,480,-5.5016
1974,4,2,413,-3.8943
1974,4,3,427,-4.8338
1974,4,4,400,-4.5586
1974,4,5,433,-4.3253
1974,4,6,431,-4.0142
1974,4,7,428,-2.8544
1974,4,8,388,-2.6697
1974,4,9,390,-3.2978
1974,4,10,438,-3.7495
1974,5,1,523,-7.1230
1974,5,2,473,-5.6899
1974,5,3,524,-5.9116
1974,5,4,498,-4.4089
1974,5,5,518,-3.9725
1974,5,6,516,-4.7225
1974,5,7,499,-1.4118
1974,5,8,477,-2.8144
1974,5,9,445,-2.1790
1974,5,10,477,-1.4411
1974,6,1,552,-4.4040
1974,6,2,522,-3.5072
1974,6,3,584,-1.8504
1974,6,4,547,-1.2680
1974,6,5,576,-0.7060
1974,6,6,553,-0.8355
1974,6,7,531,-1.6435
1974,6,8,512,-1.4623
1974,6,9,478,-0.6444
1974,6,10,511,-1.9974
1974,7,1,541,-7.6549
1974,7,2,498,-8.4027
1974,7,3,551,-4.9897
1974,7,4,508,-4.1750
1974,7,5,541,-7.4763
1974,7,6,527,-7.3136
1974,7,7,498,-8.0951
1974,7,8,479,-7.7485
1974,7,9,458,-7.2790
1974,7,10,495,-8.8394
1974,8,1,543,-7.2637
1974,8,2,534,-7.3428
1974,8,3,601,-8.6926
1974,8,4,574,-7.4830
1974,8,5,592,-7.0518
1974,8,6,570,-8.1658
1974,8,7,539,-9.7364
1974,8,8,531,-11.0682
1974,8,9,498,-8.1355
1974,8,10,512,-8.0545
1974,9,1,556,-9.5978
1974,9,2,557,-8.2886
1974,9,3,612,-9.9368
1974,9,4,585,-8.1957
1974,9,5,600,-7.7092
1974,9,6,586,-10.0124
1974,9,7,546,-12.3035
1974,9,8,558,-11.2905
1974,9,9,503,-13.9974
1974,9,10,505,-14.7753
1974,10,1,515,1.0979
1974,10,2,488,5.9156
1974,10,3,505,8.7888
1974,10,4,499,11.6051
1974,10,5,477,14.1174
1974,10,6,497,18.1036
1974,10,7,465,17.7132
1974,10,8,482,18.3018
1974,10,9,444,19.8670
1974,10,10,457,22.3465
1974,11,1,533,-8.6625
1974,11,2,513,-3.5449
1974,11,3,519,-3.4068
1974,11,4,537,-3.0507
1974,11,5,522,-4.2876
1974,11,6,519,-2.4294
1974,11,7,513,-4.4764
1974,11,8,501,-3.6660
1974,11,9,457,-5.6424
1974,11,10,445,-3.5617
1974,12,1,554,-9.2668
1974,12,2,545,-3.3258
1974,12,3,556,-3.4902
1974,12,4,562,-1.7767
1974,12,5,543,-0.7828
1974,12,6,537,-1.9589
1974,12,7,532,-2.8733
1974,12,8,511,-2.3462
1974,12,9,474,-2.8037
1974,12,10,445,-4.3046
1975,1,1,532,31.5743
1975,1,2,493,24.7815
1975,1,3,466,23.6484
1975,1,4,449,19.9575
1975,1,5,448,14.1501
1975,1,6,424,15.7170
1975,1,7,427,14.1707
1975,1,8,398,9.8839
1975,1,9,403,11.2120
1975,1,10,372,6.7480
1975,2,1,517,2.5728
1975,2,2,504,3.2459
1975,2,3,450,5.3349
1975,2,4,468,3.6114
1975,2,5,480,3.8768
1975,2,6,449,4.4602
1975,2,7,443,7.7657
1975,2,8,420,8.4096
1975,2,9,423,8.7124
1975,2,10,383,9.0907
1975,3,1,549,7.7317
1975,3,2,568,6.0184
1975,3,3,508,5.6557
1975,3,4,516,4.6903
1975,3,5,531,2.0339
1975,3,6,501,2.8864
1975,3,7,499,2.6188
1975,3,8,478,2.1270
1975,3,9,465,1.5853
1975,3,10,421,5.8165
1975,4,1,547,3.9709
1975,4,2,547,5.5478
1975,4,3,461,2.8884
1975,4,4,454,4.0240
1975,4,5,449,2.8311
1975,4,6,423,4.2045
1975,4,7,422,5.3196
1975,4,8,419,4.6410
1975,4,9,420,6.4916
1975,4,10,382,7.8331
1975,5,1,576,5.4867
1975,5,2,574,5.5640
1975,5,3,549,5.1503
1975,5,4,523,5.9546
1975,5,5,531,4.8934
1975,5,6,534,5.4790
1975,5,7,504,5.6202
1975,5,8,513,5.2257
1975,5,9,488,4.9373
1975,5,10,428,6.3466
1975,6,1,586,7.9432
1975,6,2,589,7.2342
1975,6,3,574,7.4371
1975,6,4,558,6.7255
1975,6,5,559,6.6166
1975,6,6,561,5.4118
1975,6,7,545,5.6026
1975,6,8,536,3.7330
1975,6,9,499,4.0878
1975,6,10,462,3.9460
1975,7,1,562,-2.9518
1975,7,2,567,-3.7446
1975,7,3,548,-6.5562
1975,7,4,528,-5.0895
1975,7,5,520,-6.0344
1975,7,6,507,-5.8937
1975,7,7,499,-6.8490
1975,7,8,488,-6.6709
1975,7,9,457,-6.7539
1975,7,10,457,-7.3673
1975,8,1,558,-4.9705
1975,8,2,574,-2.2667
1975,8,3,582,-1.7559
1975,8,4,576,-1.4294
1975,8,5,559,-1.6047
1975,8,6,547,-1.5133
1975,8,7,536,-1.8674
1975,8,8,503,-1.6178
1975,8,9,470,-2.1994
1975,8,10,459,-1.8726
1975,9,1,565,-5.4888
1975,9,2,582,-5.8197
1975,9,3,583,-4.7954
1975,9,4,582,-4.2091
1975,9,5,569,-2.6263
1975,9,6,557,-2.5909
1975,9,7,541,-2.9067
1975,9,8,506,-2.8556
1975,9,9,468,-3.1804
1975,9,10,470,-4.2578
1975,10,1,516,3.5699
1975,10,2,502,8.7643
1975,10,3,492,6.2193
1975,10,4,490,4.3534
1975,10,5,459,6.0967
1975,10,6,480,6.1678
1975,10,7,440,7.2508
1975,10,8,414,5.8936
1975,10,9,410,7.3515
1975,10,10,429,3.6835
1975,11,1,542,3.2688
1975,11,2,520,4.7630
1975,11,3,514,4.1342
1975,11,4,546,2.9904
1975,11,5,522,3.0313
1975,11,6,514,2.3555
1975,11,7,498,2.2659
1975,11,8,479,1.6807
1975,11,9,433,4.0533
1975,11,10,445,2.7287
1975,12,1,552,0.9210
1975,12,2,531,-0.8117
1975,12,3,549,-0.7594
1975,12,4,581,-1.8474
1975,12,5,540,-0.0648
1975,12,6,520,-0.5351
1975,12,7,516,-0.9678
1975,12,8,489,-0.7615
1975,12,9,448,-1.4506
1975,12,10,455,-3.2234
1976,1,1,462,21.9508
1976,1,2,443,17.8790
1976,1,3,444,15.2047
1976,1,4,461,13.6635
1976,1,5,435,13.9502
1976,1,6,437,11.9846
1976,1,7,421,12.0581
1976,1,8,403,9.1817
1976,1,9,404,12.3827
1976,1,10,407,12.0717
1976,2,1,430,9.4197
1976,2,2,433,5.7828
1976,2,3,443,3.5879
1976,2,4,474,1.8328
1976,2,5,444,0.9243